NOAA 16 DEB, 41492

Orbit data source: Space-Track

NOAA 16 DEB, 41492 is space debris in SSO originally from a launch on Thu, 21 Sep 2000 UTC launched from the Air Force Western Test Range (AFWTR). Debris objects in space refer to the collection of defunct objects orbiting the Earth. Examples of debris include non-operational satellites, rocket bodies, and fragments generated from explosions, collisions, or faulty payload assembly.

Loading next visibility...
Identifier
41492, 2000-055LQ
Orbit
SSO
Country
Flag of USUS
Related business
Manufacturer
Unknown
Mission
Spacecraft
Bus & Motor
Unknown
Mass
Unknown
Launch date (UTC)
2000-09-21 (25 years ago)
Launch vehicle
Unknown
Launch site
Air Force Western Test Range (AFWTR)
Object type
Payload
Rocket body
Debris
Shape & HBR
Unknown shape, 0.1 m
Radar Cross Section
Small (<0.1 m²)

Expand to show TLE details & history
Last TLE update: 6 days ago

TLE from 6 days ago
0 NOAA 16 DEB
1 41492U 00055LQ  25348.52833348  .00006612  00000-0  38901-2 0  9996
2 41492  98.8800 281.7318 0105106   7.1996 353.0653 14.05575053496290
Epoch: 2025-12-14T12:40Z
TLE epoch observation values (Epoch: 2025-12-14T12:40:48.012Z)
Latitude
-0.00001°
Longitude
8.09179°
Altitude
801.768 km
Speed
7.491 km/s
True Right ascension
18h 46m 55s
True Declination
0° 00' 00"
Sunlit
Object was in daylight at epoch
Visualization orbit readout
Latitude
Unknown
Longitude
Unknown
Altitude
Unknown
Speed
Unknown
Apparent Right ascension
Unknown
Apparent Declination
Unknown
Sunlit
N/A
Visualization observer readout
Local Sidereal Time
09:30:56
Azimuth
Unknown
Elevation
Unknown
Doppler factor
Unknown
Orbital elements
Apogee altitude
947.94 km
Perigee altitude
795.539 km
Semi-major axis
7,249.876 km
Eccentricity
0.01051
Inclination
98.88°
RAAN
281.7318°
Arg. of periapsis
7.1996°
True anomaly
352.91796°
Mean anomaly
353.0653°
Eccentric anomaly
352.99182°
Mean motion
3.51599 °/min
Orbital period
102.39 mins
BSTAR
0.0038901
Loading maneuver chart data...
Computing Atmospheric mass density...
Loading historical data...
Loading historical data...
Loading historical data...
Loading historical data...
Loading historical data...
Loading historical data...
Loading historical data...

Documentation

Showing up to 5 results
|